Погода в Посадниково

Россия / Псковская область     57°07′09″N   29°16′53″E
темп.,
°C
ветер,
м/с
пор.,
м/с
влажн.,
%
обл.,
%
осадки,
мм/ч
давл.,
гПа
погр.,
м
12 мая, ср
ср1200:00+10юв28785 0.0 1023134
03:00+9юв25865 0.0 1023109
06:00+10юв26870 0.0 1023129
09:00+17юв36680 0.0 1023562
12:00+21юв47550 0.0 10221388
15:00+20юв475799 0.0 10211691
18:00+20юв38540 0.0 10191699
21:00+14св00779 0.0 101811
13 мая, чт
чт1300:00+13всв2590100 0.3 1016128
03:00+13всв41197100 0.6 1014716
06:00+11юв411934 0.1 1014736
09:00+13вюв510704 0.2 1014763
12:00+15вюв6115832 0.1 10131735
15:00+15юв595432 0.1 10131823
18:00+16юв3854100 0.0 10111657
21:00+10вюв25846 0.1 101199
14 мая, пт
пт1400:00+7ююв26893 0.0 1011110
03:00+7юв269396 0.0 1011135
06:00+8вюв3108886 0.0 1011295
09:00+9вюв4128998 0.5 1011449
12:00+15юв596599 0.0 1011916
15:00+14вюв497496 0.0 1010669
18:00+15вюв377142 0.1 1009723
21:00+13вюв289491 0.9 1008261
15 мая, сб
сб1500:00+11в249851 1.4 100795
03:00+10юв119792 1.4 100712
06:00+10юв119782 0.0 100623
09:00+16юв248576 0.3 1005438
12:00+17ю358575 3.4 1005980
15:00+17юз458125 5.7 1005875
18:00+16юз36916 2.0 1005519
21:00+13юз259648 2.3 1006110
16 мая, вс
вс1600:00+11юз2297100 0.0 100745
03:00+10юз2699100 0.0 1008182
06:00+10зюз2699100 0.0 1009234
09:00+12з3492100 0.0 1011433
12:00+16з236158 0.0 10121163
15:00+19з23470 0.0 10121609
18:00+19зсз125096 0.0 10111580
21:00+13вюв2277100 0.0 101211